Location: Krasnoyarskiy Pitomnik
(51.1333°N, 71.6167°E)
Time: 14:02:28
(UTC+00:00)

Transit 2A - Pass Details

Date: 22 April 2024
Orbit: 593 x 958 km, 66.7° (Epoch: 30 May)

Event Time Altitude Azimuth Distance (km) Brightness Sun altitude
Rises 08:58:56 0° 322° (NW) 3,198 9.1 45.6°
Reaches altitude 10° 09:01:14 10° 325° (NW) 2,326 8.5 45.4°
Maximum altitude 09:06:36 68° 49° (NE) 895 6.8 44.9°
Drops below altitude 10° 09:12:30 10° 133° (SE) 2,553 8.8 44.2°
Sets 09:15:08 0° 135° (SE) 3,534 9.5 43.9°
